Time,TemperatureF,DewpointF,PressureIn,WindDirection,WindDirectionDegrees,WindSpeedMPH,WindSpeedGustMPH,Humidity,HourlyPrecipIn,Conditions,Clouds,dailyrainin,SoftwareType,DateUTC
2013-01-06 16:03:00,41.0,29.0,29.95,WSW,253,2.0,8.0,63,0.00,,,0.01,,2013-01-06 21:03:00,
2013-01-06 16:12:00,41.0,29.0,29.95,WSW,253,2.0,8.0,63,0.00,,,0.01,,2013-01-06 21:12:00,
2013-01-06 16:22:00,41.0,30.0,29.95,WSW,243,1.0,5.0,64,0.00,,,0.01,,2013-01-06 21:22:00,
2013-01-06 16:33:00,40.0,29.0,29.95,WSW,242,0.0,2.0,65,0.00,,,0.01,,2013-01-06 21:33:00,
2013-01-06 16:43:00,40.0,29.0,29.95,WSW,242,0.0,2.0,65,0.00,,,0.01,,2013-01-06 21:43:00,
2013-01-06 16:52:00,39.0,29.0,29.95,WSW,243,0.0,2.0,67,0.00,,,0.01,,2013-01-06 21:52:00,
2013-01-06 17:02:00,38.0,29.0,29.95,WSW,242,0.0,2.0,70,0.00,,,0.01,,2013-01-06 22:02:00,
2013-01-06 17:12:00,38.0,29.0,29.95,WSW,242,0.0,2.0,70,0.00,,,0.01,,2013-01-06 22:12:00,
2013-01-06 17:22:00,38.0,29.0,29.96,WSW,242,0.0,1.0,71,0.00,,,0.01,,2013-01-06 22:22:00,
2013-01-06 17:33:00,37.0,29.0,29.96,WSW,243,0.0,2.0,72,0.00,,,0.01,,2013-01-06 22:33:00,
2013-01-06 17:43:00,37.0,29.0,29.96,WSW,243,0.0,2.0,72,0.00,,,0.01,,2013-01-06 22:43:00,
2013-01-06 17:52:00,38.0,30.0,29.96,WSW,243,0.0,3.0,72,0.00,,,0.01,,2013-01-06 22:52:00,
2013-01-06 18:02:00,38.0,29.0,29.97,WSW,237,2.0,6.0,71,0.00,,,0.01,,2013-01-06 23:02:00,
2013-01-06 18:12:00,38.0,29.0,29.97,WSW,237,2.0,6.0,71,0.00,,,0.01,,2013-01-06 23:12:00,
2013-01-06 18:22:00,38.0,29.0,29.97,WSW,241,0.0,3.0,71,0.00,,,0.01,,2013-01-06 23:22:00,
2013-01-06 18:33:00,37.0,29.0,29.98,NW,304,1.0,6.0,72,0.00,,,0.01,,2013-01-06 23:33:00,
2013-01-06 18:43:00,37.0,29.0,29.98,NW,304,1.0,6.0,72,0.00,,,0.01,,2013-01-06 23:43:00,
2013-01-06 18:52:00,37.0,29.0,29.98,WSW,250,1.0,12.0,72,0.00,,,0.01,,2013-01-06 23:52:00,
2013-01-06 19:03:00,36.0,28.0,29.99,WSW,240,0.0,3.0,73,0.00,,,0.01,,2013-01-07 00:03:00,
2013-01-06 19:12:00,36.0,28.0,29.99,WSW,240,0.0,3.0,73,0.00,,,0.01,,2013-01-07 00:12:00,
2013-01-06 19:23:00,36.0,28.0,29.99,WSW,241,0.0,2.0,73,0.00,,,0.01,,2013-01-07 00:23:00,
2013-01-06 19:33:00,35.0,28.0,29.99,WSW,241,0.0,0.0,76,0.00,,,0.01,,2013-01-07 00:33:00,
2013-01-06 19:43:00,35.0,28.0,29.99,WSW,241,0.0,0.0,76,0.00,,,0.01,,2013-01-07 00:43:00,
2013-01-06 19:53:00,35.0,28.0,30.00,WSW,241,0.0,1.0,76,0.00,,,0.01,,2013-01-07 00:53:00,
2013-01-06 20:02:00,33.0,27.0,30.00,WSW,241,0.0,1.0,77,0.00,,,0.01,,2013-01-07 01:02:00,
2013-01-06 20:12:00,33.0,27.0,30.00,WSW,241,0.0,1.0,77,0.00,,,0.01,,2013-01-07 01:12:00,
2013-01-06 20:23:00,33.0,27.0,30.00,WSW,241,0.0,3.0,78,0.00,,,0.01,,2013-01-07 01:23:00,
2013-01-06 20:32:00,32.0,26.0,30.00,WSW,241,0.0,1.0,78,0.00,,,0.01,,2013-01-07 01:32:00,
2013-01-06 20:42:00,32.0,26.0,30.00,WSW,241,0.0,1.0,78,0.00,,,0.01,,2013-01-07 01:42:00,
2013-01-06 20:52:00,31.0,25.0,30.00,WSW,241,0.0,0.0,79,0.00,,,0.01,,2013-01-07 01:52:00,
2013-01-06 21:02:00,30.0,24.0,30.00,WSW,241,0.0,0.0,79,0.00,,,0.01,,2013-01-07 02:02:00,
2013-01-06 21:12:00,30.0,24.0,30.00,WSW,241,0.0,0.0,79,0.00,,,0.01,,2013-01-07 02:12:00,
2013-01-06 21:23:00,30.0,25.0,30.00,WSW,247,0.0,1.0,80,0.00,,,0.01,,2013-01-07 02:23:00,
2013-01-06 21:32:00,29.0,24.0,30.00,WSW,247,0.0,1.0,80,0.00,,,0.01,,2013-01-07 02:32:00,
2013-01-06 21:42:00,29.0,24.0,30.00,WSW,247,0.0,1.0,80,0.00,,,0.01,,2013-01-07 02:42:00,
2013-01-06 21:53:00,29.0,24.0,30.00,WSW,247,0.0,0.0,80,0.00,,,0.01,,2013-01-07 02:53:00,
2013-01-06 22:02:00,29.0,24.0,30.01,WSW,247,0.0,0.0,80,0.00,,,0.01,,2013-01-07 03:02:00,
2013-01-06 22:12:00,29.0,24.0,30.01,WSW,247,0.0,0.0,80,0.00,,,0.01,,2013-01-07 03:12:00,
2013-01-06 22:22:00,28.0,23.0,30.01,WSW,247,0.0,0.0,80,0.00,,,0.01,,2013-01-07 03:22:00,
2013-01-06 22:33:00,28.0,23.0,30.02,WSW,247,0.0,0.0,80,0.00,,,0.01,,2013-01-07 03:33:00,
2013-01-06 22:43:00,28.0,23.0,30.02,WSW,247,0.0,0.0,80,0.00,,,0.01,,2013-01-07 03:43:00,
2013-01-06 22:52:00,28.0,23.0,30.02,WSW,247,0.0,0.0,80,0.00,,,0.01,,2013-01-07 03:52:00,
2013-01-06 23:02:00,27.0,22.0,30.02,WSW,247,0.0,0.0,80,0.00,,,0.01,,2013-01-07 04:02:00,
2013-01-06 23:12:00,27.0,22.0,30.02,WSW,247,0.0,0.0,80,0.00,,,0.01,,2013-01-07 04:12:00,
2013-01-06 23:22:00,27.0,22.0,30.02,WSW,247,0.0,0.0,80,0.00,,,0.01,,2013-01-07 04:22:00,
2013-01-06 23:33:00,27.0,21.0,30.03,WSW,247,0.0,0.0,79,0.00,,,0.01,,2013-01-07 04:33:00,
2013-01-06 23:42:00,27.0,21.0,30.03,WSW,247,0.0,0.0,79,0.00,,,0.01,,2013-01-07 04:42:00,
2013-01-06 23:52:00,27.0,21.0,30.03,WSW,247,0.0,0.0,79,0.00,,,0.01,,2013-01-07 04:52:00,